PHOENIX (42706 NORAD) Tracking and Keplerian Element Data

This shows tracking and keplerian element data for the satellite.

Feedback or suggestion? Click here.




ElementValue
Catalog42706
NamePHOENIX
Epoch Orbit11334
Epoch Day128.42254485
Epoch Year2019
RAAN109.656
Inclination51.5998
Eccentricity0.0003143
Argument of Perigee270.9046
Mean Anonmoly228.456
Mean Motion16.40380041
Decay Rate0.08245211
L11 42706U 98067LP 19128.42254485 .08245211 12410-4 57150-3 0 9990
L22 42706 51.5998 109.6560 0003143 270.9046 228.4560 16.40380041113340

Live tracking and technical data element details for PHOENIX (NORAD 42706). PHOENIX can be tracked NOW for your location showing map with azimuth and elevation plus other details from your city location.

Track the satellite on the map from your city or location and see movement details for azimuth, elevation, latitude, longitude, range, height, and movement on the map or in text.







IsCatalogInMostPopularTable: catalog: 42706, numindb: 315
Update: records affected: 1



GetName: 42706 PHOENIX

Hit Count: updated at: Thu, 19 Sep 2019 16:55:52 GMT